KUIPER-00179

导读 | 豆包AI

KUIPER-00179是美国亚马逊公司“柯伊伯计划”星座中的一颗近地轨道互联网卫星,于2025年12月15日发射升空。该计划旨在打造全球卫星宽带网络,计划部署超3200颗卫星,与SpaceX星链竞争卫星互联网市场,KUIPER-00179的入轨将进一步推动该星座部署进程,助力实现全球高速互联网覆盖目标。

Basic Information
目录编号:
67136
目录名称:
KUIPER-00179
国际标识:
2025-301D
轨道中心:
EARTH
卫星名称:
KUIPER-00179
卫星全名:
KUIPER-00179
卫星状态:
在轨 (已飞行161 天)
发射日期:
2025-12-15 UTC
国别 :
美国 (US)
星等 :
--
Orbit Information
数据来源 国际轨道数据 AOE轨道数据
星历时间 2026-05-24T10:58:00+0800
1天前
查看轨道信息
2026-05-21T23:00:00+0800
3天前
查看轨道信息
半长轴 7007.661km 7007.673km
偏心率 0.0000661 0.0000591
轨道倾角 51.898° 51.898°
近地点辐角 94.355° 98.679°
升交点赤经 92.028° 103.079°
平近点角 265.748° 261.383°
近地点 629.06km 629.121km
远地点 629.988km 629.951km
周期 97.301分钟 97.302分钟
每日圈数 14.799369 14.79933
Detailed Information
使用方式:
暂无
2D Orbit Map
3D Orbit Map
Orbit Altitude Analysis Chart
Orbit Inclination Analysis Chart
Orbit Comprehensive Analysis Chart
View Comprehensive Chart